Find Skipper

NORAD ID: 23752 Int'l Des: 1995-072 Owner: BMDO Country: US operational
LEOCIRCULARRETROGRADESSO

Live Position

Loading 3D Globe...

About Skipper

Description loading...

Upcoming Passes

Passes for default location (London). Set your location on the main map for personalized predictions.

Altitude History

Loading altitude history...

Two-Line Element Set

1 23752U 95072B 26104.93383061 -.00000011 00000-0 13930-4 0 9991
2 23752 98.7380 176.7871 0004626 317.5107 42.5715 14.26150311576326
Epoch: Apr 14, 2026 • Age: 10 hours

Current Status

Altitude 823.6 km
Velocity 7.44 km/s
Sub-Earth Point -57.32°S, 136.16°W
Launch Date Dec 28, 1995
Age 30.2 years
Type other

Technical Details

Classification Payload
Mass 250.00 kg
Dry Mass 220.00 kg
Total Mass 250.00 kg
Length 1.00 m
Diameter 1.50 m
Span 1.50 m
Shape Cyl
Manufacturer NPOL/CNSA
Bus Type Skipper
Phase Status In Orbit
Owner/State BMDO/US

Most Searched